Date String (YYYY-MM-DD hh:mm:ss) UTC,Instrument flags,absolute air pressure of the measurement (hPa),sample flow rate (lpm),inlet stack bypass flow (lpm),air temperature of the measurement (°C),ambient temperature measured by the external sensor (°C),aerosol sample conditioner tube jacket temperature (°C),OPC LED temperature (°C),internal box temperature (°C),relative humidity of the measurement (%),span deviation,mass concentration of particles derived from Lorenz-Mie calculation of OPC scattering (μg/m³),mass concentration of particles derived from Lorenz-Mie calculation of OPC scattering (μg/m³),mass concentration of particles derived from Lorenz-Mie calculation of OPC scattering (μg/m³)
DateTimeUTC,F1_M11,P_M11,Q1_M11,Q2_M11,T1_M11,T2_M11,T3_M11,T4_M11,T5_M11,U1_M11,ZSPAN_M11,X2_M11,X0_M11,X1_M11
2023-10-02 00:00:00,SystemResetWarning,0824.9,5.01,000.00,028.0,024.3,000.0,036.4,029.6,15.3,0000.0,0004.05,0011.25,0003.14
2023-10-02 00:01:00,SystemResetWarning,0824.9,5.00,000.00,028.0,024.7,000.0,036.4,029.5,15.2,0000.0,0004.06,0012.53,0003.15
2023-10-02 00:02:00,SystemResetWarning,0824.9,5.00,000.00,027.9,025.1,000.0,036.4,029.6,15.2,0000.0,0004.07,0012.66,0003.17
2023-10-02 00:03:00,SystemResetWarning,0824.9,5.00,000.00,027.9,025.6,000.0,036.4,029.7,15.2,0000.0,0004.06,0012.95,0003.17
2023-10-02 00:04:00,SystemResetWarning,0824.9,5.00,000.00,028.0,026.0,000.0,036.4,029.7,15.3,0000.0,0004.04,0012.54,0003.17
2023-10-02 00:05:00,SystemResetWarning,0824.9,5.00,000.00,028.0,026.3,000.0,036.5,029.8,15.3,0000.0,0004.08,0013.34,0003.16
2023-10-02 00:06:00,SystemResetWarning,0824.9,5.00,000.00,028.1,026.6,000.0,036.5,029.9,15.2,0000.0,0004.11,0013.66,0003.16
2023-10-02 00:07:00,SystemResetWarning,0824.9,5.00,000.00,028.1,026.8,000.0,036.5,030.0,15.3,0000.0,0004.13,0013.86,0003.16
2023-10-02 00:08:00,SystemResetWarning,0824.9,5.01,000.00,028.2,027.0,000.0,036.5,030.0,15.2,0000.0,0004.15,0013.50,0003.16
2023-10-02 00:09:00,SystemResetWarning,0825.0,4.99,000.00,028.2,027.0,000.0,036.5,030.1,15.2,0000.0,0004.14,0013.45,0003.15
2023-10-02 00:10:00,SystemResetWarning,0825.0,4.98,000.00,028.2,025.7,000.0,036.5,030.0,15.3,0000.0,0004.11,0013.61,0003.14
2023-10-02 00:11:00,SystemResetWarning,0824.9,5.00,000.00,028.1,024.2,000.0,036.4,029.7,15.4,0000.0,0004.09,0013.79,0003.14
2023-10-02 00:12:00,SystemResetWarning,0825.0,5.01,000.00,028.0,024.2,000.0,036.4,029.6,15.6,0000.0,0004.11,0012.94,0003.13
2023-10-02 00:13:00,SystemResetWarning,0825.0,5.01,000.00,028.0,024.6,000.0,036.4,029.5,15.9,0000.0,0004.09,0012.45,0003.13
2023-10-02 00:14:00,SystemResetWarning,0825.0,5.00,000.00,027.9,025.0,000.0,036.4,029.6,15.9,0000.0,0004.04,0011.66,0003.12
2023-10-02 00:15:00,SystemResetWarning,0825.1,5.00,000.00,027.9,025.4,000.0,036.4,029.6,15.9,0000.0,0004.04,0011.58,0003.12
2023-10-02 00:16:00,SystemResetWarning,0825.1,4.99,000.00,027.9,025.8,000.0,036.4,029.7,16.1,0000.0,0004.00,0010.69,0003.13
2023-10-02 00:17:00,SystemResetWarning,0825.1,5.00,000.00,028.0,026.2,000.0,036.4,029.8,16.1,0000.0,0003.95,0009.82,0003.12
2023-10-02 00:18:00,SystemResetWarning,0825.1,4.99,000.00,028.0,026.5,000.0,036.4,029.8,16.1,0000.0,0003.92,0009.50,0003.10
2023-10-02 00:19:00,SystemResetWarning,0825.1,5.01,000.00,028.1,026.7,000.0,036.5,029.9,16.0,0000.0,0003.88,0009.36,0003.10
2023-10-02 00:20:00,SystemResetWarning,0825.1,5.00,000.00,028.1,026.9,000.0,036.5,030.0,16.0,0000.0,0003.84,0009.16,0003.10
2023-10-02 00:21:00,SystemResetWarning,0825.1,5.00,000.00,028.2,027.1,000.0,036.5,030.0,16.1,0000.0,0003.85,0009.18,0003.12
2023-10-02 00:22:00,SystemResetWarning,0825.1,4.98,000.00,028.2,026.9,000.0,036.5,030.1,16.0,0000.0,0003.88,0009.03,0003.12
2023-10-02 00:23:00,SystemResetWarning,0825.1,5.00,000.00,028.2,025.1,000.0,036.5,029.9,15.9,0000.0,0003.82,0008.13,0003.11
2023-10-02 00:24:00,SystemResetWarning,0825.1,5.01,000.00,028.1,024.0,000.0,036.4,029.6,16.1,0000.0,0003.82,0008.15,0003.11
2023-10-02 00:25:00,SystemResetWarning,0825.1,5.01,000.00,028.0,024.1,000.0,036.4,029.6,16.1,0000.0,0003.86,0008.33,0003.11
2023-10-02 00:26:00,SystemResetWarning,0825.1,4.99,000.00,027.9,024.5,000.0,036.4,029.5,16.1,0000.0,0003.87,0008.40,0003.11
2023-10-02 00:27:00,SystemResetWarning,0825.1,5.00,000.00,027.9,024.9,000.0,036.4,029.5,16.3,0000.0,0003.86,0008.35,0003.11
2023-10-02 00:28:00,SystemResetWarning,0825.1,5.01,000.00,027.9,025.4,000.0,036.4,029.6,16.3,0000.0,0003.85,0008.54,0003.11
2023-10-02 00:29:00,SystemResetWarning,0825.1,5.00,000.00,027.9,025.8,000.0,036.4,029.7,16.4,0000.0,0003.83,0009.18,0003.12
2023-10-02 00:30:00,SystemResetWarning,0825.2,5.00,000.00,027.9,026.1,000.0,036.4,029.7,16.6,0000.0,0003.81,0009.59,0003.12
2023-10-02 00:31:00,SystemResetWarning,0825.2,5.00,000.00,028.0,026.4,000.0,036.4,029.8,16.5,0000.0,0003.83,0010.04,0003.13
2023-10-02 00:32:00,SystemResetWarning,0825.2,5.00,000.00,028.0,026.6,000.0,036.4,029.9,16.7,0000.0,0003.81,0009.86,0003.12
2023-10-02 00:33:00,SystemResetWarning,0825.2,5.01,000.00,028.1,026.9,000.0,036.5,029.9,16.7,0000.0,0003.78,0009.54,0003.11
2023-10-02 00:34:00,SystemResetWarning,0825.2,5.00,000.00,028.1,027.0,000.0,036.5,030.0,16.6,0000.0,0003.78,0009.43,0003.12
2023-10-02 00:35:00,SystemResetWarning,0825.2,4.99,000.00,028.2,027.2,000.0,036.5,030.1,16.6,0000.0,0003.80,0009.37,0003.12
2023-10-02 00:36:00,SystemResetWarning,0825.2,4.98,000.00,028.2,026.7,000.0,036.5,030.1,16.7,0000.0,0003.81,0009.48,0003.12
2023-10-02 00:37:00,SystemResetWarning,0825.3,5.00,000.00,028.2,024.9,000.0,036.5,029.9,16.7,0000.0,0003.84,0010.10,0003.12
2023-10-02 00:38:00,SystemResetWarning,0825.2,5.01,000.00,028.1,024.0,000.0,036.4,029.6,16.9,0000.0,0003.85,0010.51,0003.12
2023-10-02 00:39:00,SystemResetWarning,0825.2,5.01,000.00,028.0,024.2,000.0,036.4,029.5,17.1,0000.0,0003.88,0010.85,0003.12
2023-10-02 00:40:00,SystemResetWarning,0825.2,5.01,000.00,027.9,024.6,000.0,036.4,029.5,17.4,0000.0,0003.90,0010.72,0003.12
2023-10-02 00:41:00,SystemResetWarning,0825.2,4.99,000.00,027.9,025.0,000.0,036.4,029.5,17.5,0000.0,0003.97,0011.99,0003.13
2023-10-02 00:42:00,SystemResetWarning,0825.3,5.01,000.00,027.9,025.4,000.0,036.4,029.6,17.5,0000.0,0004.01,0012.32,0003.13
2023-10-02 00:43:00,SystemResetWarning,0825.2,5.00,000.00,027.9,025.8,000.0,036.4,029.7,17.5,0000.0,0004.05,0013.32,0003.13
2023-10-02 00:44:00,SystemResetWarning,0825.2,4.99,000.00,027.9,026.1,000.0,036.4,029.7,17.4,0000.0,0004.06,0013.82,0003.14
2023-10-02 00:45:00,SystemResetWarning,0825.3,5.00,000.00,028.0,026.4,000.0,036.4,029.8,17.3,0000.0,0004.09,0013.92,0003.15
2023-10-02 00:46:00,SystemResetWarning,0825.3,5.00,000.00,028.0,026.7,000.0,036.4,029.9,17.2,0000.0,0004.11,0014.19,0003.15
2023-10-02 00:47:00,SystemResetWarning,0825.4,5.00,000.00,028.1,026.8,000.0,036.4,029.9,17.0,0000.0,0004.10,0014.51,0003.16
2023-10-02 00:48:00,SystemResetWarning,0825.4,4.99,000.00,028.1,027.0,000.0,036.5,030.0,16.9,0000.0,0004.06,0014.28,0003.16
2023-10-02 00:49:00,SystemResetWarning,0825.4,4.99,000.00,028.2,027.2,000.0,036.5,030.1,16.6,0000.0,0004.05,0015.45,0003.17
2023-10-02 00:50:00,SystemResetWarning,0825.4,4.99,000.00,028.2,027.1,000.0,036.5,030.1,16.4,0000.0,0004.05,0015.31,0003.18
2023-10-02 00:51:00,SystemResetWarning,0825.4,5.00,000.00,028.2,025.7,000.0,036.5,030.0,16.3,0000.0,0004.06,0014.81,0003.19
2023-10-02 00:52:00,SystemResetWarning,0825.4,5.01,000.00,028.2,024.9,000.0,036.4,029.9,16.2,0000.0,0004.06,0013.53,0003.20
2023-10-02 00:53:00,SystemResetWarning,0825.4,5.02,000.00,028.1,024.9,000.0,036.4,029.8,16.2,0000.0,0004.04,0012.95,0003.20
2023-10-02 00:54:00,SystemResetWarning,0825.4,5.00,000.00,028.1,025.2,000.0,036.5,029.7,16.2,0000.0,0004.03,0012.03,0003.21
2023-10-02 00:55:00,SystemResetWarning,0825.4,5.00,000.00,028.0,025.6,000.0,036.5,029.7,16.1,0000.0,0004.03,0011.57,0003.21
2023-10-02 00:56:00,SystemResetWarning,0825.4,4.99,000.00,028.1,025.9,000.0,036.5,029.8,16.1,0000.0,0004.02,0011.59,0003.22
2023-10-02 00:57:00,SystemResetWarning,0825.4,4.99,000.00,028.1,026.3,000.0,036.5,029.9,16.0,0000.0,0003.99,0011.39,0003.22
2023-10-02 00:58:00,SystemResetWarning,0825.4,5.00,000.00,028.1,026.5,000.0,036.5,029.9,15.9,0000.0,0004.02,0011.06,0003.22
2023-10-02 00:59:00,SystemResetWarning,0825.4,5.00,000.00,028.2,026.8,000.0,036.6,030.0,15.9,0000.0,0004.04,0010.66,0003.23
